Regional Weather Roundup
Issued by NWS

Home | Current Version | Previous Version | Graphics & Text | Print | Product List | Glossary On
Versions: 1 2 3 4 5 6 7 8 9 10 11 12 13 14 15 16 17 18 19 20 21 22 23 24 25 26 27 28 29 30 31 32 33 34 35 36 37 38 39 40 41 42 43 44 45 46 47 48 49 50
000
ASUS43 KDMX 202207
RWRIA

WEATHER ROUNDUP FOR IOWA
NATIONAL WEATHER SERVICE DES MOINES IA
500 PM CDT MON APR 20 2015

NOTE: "FAIR" INDICATES FEW OR NO CLOUDS BELOW 12,000 FEET WITH NO
SIGNIFICANT WEATHER AND/OR OBSTRUCTIONS TO VISIBILITY.

* - THESE STATIONS ARE NOT NWS STATIONS...THUS NOT UNDER NWS
QUALITY CONTROL.  THEY ALSO DO NOT REPORT WEATHER SUCH
AS PRECIPITATION OR FOG.

IAZ001>003-012>014-020>022-031>034-043>046-202300-
   NORTHWEST IOWA

CITY           SKY/WX    TMP DP  RH WIND       PRES   REMARKS
CARROLL *      SUNNY     55  14  19 NW33G39   29.67S
CHEROKEE *     SUNNY     54  16  22 NW26G40   29.67S
DENISON *      SUNNY     55  12  18 NW23G36   29.68S
LE MARS *      SUNNY     55   9  15 NW28G41   29.69F
ORANGE CITY *  SUNNY     52  18  25 NW30G40   29.67S
SHELDON *      MOSUNNY   52  21  30 NW26G38   29.64S
SIOUX CITY     SUNNY     57  11  16 NW31G38   29.69R
SPENCER        PTSUNNY   52  27  38 NW21G37   29.64S
STORM LAKE *   SUNNY     52  14  22 NW30G41   29.66S
$$

IAZ055>058-069>071-079>083-090>094-202300-
   SOUTHWEST IOWA

CITY           SKY/WX    TMP DP  RH WIND       PRES   REMARKS
ATLANTIC *     MOSUNNY   55  16  21 NW29G40   29.72S
AUDUBON *      SUNNY     55   3  12 NW20G33   29.71S
CLARINDA *     MOSUNNY   57  19  23 W20G37    29.77F
COUNCIL BLFS * SUNNY     57  16  19 NW28G37   29.73F
CRESTON *      MOSUNNY   55  23  28 W29G38    29.72S
HARLAN  *      MOSUNNY   55  19  24 NW26G45   29.74F
LAMONI         PTSUNNY   54  27  35 W23G32    29.73F
RED OAK *      MOSUNNY   57  18  21 NW22G37   29.74S
SHENANDOAH *   MOSUNNY   55  21  26 NW14G28   29.77S
$$

IAZ047>049-059>061-072>074-084-202300-
   CENTRAL IOWA

CITY           SKY/WX    TMP DP  RH WIND       PRES   REMARKS
AMES           PTSUNNY   53  23  31 NW23G35   29.65S
ANKENY *       MOSUNNY   55  23  28 W18G31    29.66F
CHARITON *     MOSUNNY   54  25  32 NW25G32   29.70S
DES MOINES     MOSUNNY   57  20  23 NW25G36   29.67S
GRINNELL*      MOSUNNY   52  27  37 W26G33    29.66R
KNOXVILLE *    PTSUNNY   52  25  35 NW23G31   29.67S
MARSHALLTOWN   CLOUDY    50  33  52 W25G35    29.63S
PELLA *        MOSUNNY   54  30  40 W24G35    29.68S
PERRY *          N/A     54  23  30 NW21G35   29.67F
$$

IAZ004>006-015-016-023>025-035-036-202300-
   NORTH CENTRAL IOWA

CITY           SKY/WX    TMP DP  RH WIND       PRES   REMARKS
ALGONA *       MOSUNNY   46  34  61 NW20G29   29.63S
CLARION *      PTSUNNY   46  37  71 N17G25    29.63R
ESTHERVILLE    CLOUDY    46  30  53 NW32G38   29.64R
FORT DODGE *   PTSUNNY   54  27  35 W15G28    29.64S
MASON CITY     CLOUDY    43  32  65 NW24G32   29.63S
FOREST CITY *  CLOUDY    41  32  70 NW22G29   29.62S
IOWA FALLS *   PTSUNNY   48  34  57 NW22G30   29.64R
$$

IAZ007>011-017>019-026>030-037>042-050>054-066-202300-
   NORTHEAST IOWA

CITY           SKY/WX    TMP DP  RH WIND       PRES   REMARKS
CEDAR RAPIDS   PTSUNNY   46  38  73 W20       29.62R
CHARLES CITY * CLOUDY    43  36  75 W28G35    29.61R
CLINTON *      PTSUNNY   50  34  53 NW30G36   29.63R
DECORAH *      CLOUDY    43  30  61 NW16G26   29.55R
DUBUQUE        CLOUDY    45  32  60 W21G26    29.58R
MONTICELLO *   CLOUDY    48  32  53 NW20G31   29.59R
OELWEIN *      CLOUDY    45  34  65 NW28G35   29.59S
WATERLOO       CLOUDY    46  32  58 NW16G28   29.61R
$$

IAZ064-065-067-068-078-202300-
   EAST CENTRAL IOWA

CITY           SKY/WX    TMP DP  RH WIND       PRES   REMARKS
DAVENPORT      CLOUDY    48  35  60 W23G30    29.63R
IOWA CITY      LGT RAIN  46  36  68 W13G30    29.66R
MT. PLEASANT * CLOUDY    50  32  50 W21G26    29.68S
MUSCATINE *    CLOUDY    50  37  62 W16       29.66S
QUAD CITIES    CLOUDY    49  37  63 W15       29.63R
$$

IAZ062-063-075>077-085>089-095>099-202300-
   SOUTHEAST IOWA

CITY           SKY/WX    TMP DP  RH WIND       PRES   REMARKS
BURLINGTON     CLOUDY    52  32  46 W15G25    29.67S
FAIRFIELD *    PTSUNNY   54  28  37 NW28      29.66F
FORT MADISON * CLOUDY    48  34  57 NW16G26   29.70R
KEOKUK *       CLOUDY    52  32  46 W20G26    29.70S
OSKALOOSA *    PTSUNNY   52  28  40 W28       29.68S
CENTERVILLE *  MOSUNNY   50  32  50 W22G35    29.73S
OTTUMWA        PTSUNNY   52  27  38 NW22G29   29.68S
WASHINGTON *   PTSUNNY   50  34  53 W20G29    29.66S
$$

ABBREVIATIONS USED IN REMARKS
   TC - TEMPERATURES IN CELSIUS
  WCI - WIND CHILL INDEX
   HX - HEAT INDEX
  VSB - VISIBILITY
$$




USA.gov is the U.S. government's official web portal to all federal, state and local government web resources and services.